Ketchikan, AK

10:06 PM AKDT on September 20, 2018 (GMT -0800)
Ketchikan International

Weather History for PAKT - June, 2018

Change the Weather History Date:

Saturday, June 2, 2018

  Actual Average Record
Temperature  
Mean Temperature 52 °F -  
Max Temperature 57 °F 59 °F 75 °F (1957)
Min Temperature 46 °F 44 °F 35 °F (1981)
Degree Days  
Heating Degree Days 14    
Growing Degree Days 2 (Base 50)    
Moisture  
Dew Point 45 °F    
Average Humidity 84    
Maximum Humidity 93    
Minimum Humidity 62    
Precipitation  
Precipitation 0.47 in - - ()
Sea Level Pressure  
Sea Level Pressure 30.13 in    
Wind  
Wind Speed 7 mph (SE)    
Max Wind Speed 18 mph    
Max Gust Speed 24 mph    
Visibility 8 miles    
Events Rain    
Averages and records for this station are not official NWS values.
T = Trace of Precipitation, MM = Missing Value Source: NWS Daily Summary

Daily Weather History Graph

Daily Weather History Graph

Search for Another Location

Airport or City:

Astronomy

Jun. 02, 2018 Rise Set
Actual Time 4:11 AM AKDT 9:18 PM AKDT
Civil Twilight 3:16 AM AKDT 10:14 PM AKDT
Nautical Twilight 1:23 AM AKDT 12:11 AM AKDT
Astronomical Twilight Sun does not set Sun does not set
Moon No Moon Rise 7:50 AM AKDT (6/2)
Length of Visible Light 18h 58m
Length of Day
17h 06m
Waning Gibbous, 84% of the Moon is Illuminated
Jun 2
Waning Gibbous
Jun 6
Last Quarter
Jun 13
New
Jun 20
First Quarter
Jun 27
Full

Hourly Weather History & Observations

Time (AKDT) Temp. Windchill Dew Point Humidity Pressure Visibility Wind Dir Wind Speed Gust Speed Precip Events Conditions
12:11 AM 48.0 °F - 45.0 °F 89% 30.06 in 10.0 mi SSE 5.8 mph - 0.06 in Rain Light Rain
12:24 AM 48.0 °F - 45.0 °F 89% 30.06 in 10.0 mi SSE 4.6 mph - 0.06 in Rain Light Rain
12:53 AM 48.0 °F - 45.0 °F 89% 30.07 in 5.0 mi SSW 3.5 mph - 0.07 in Rain Light Rain
12:58 AM 48.0 °F - 45.0 °F 89% 30.07 in 1.8 mi SSW 4.6 mph - 0.05 in Rain Rain
1:09 AM 46.9 °F - 44.1 °F 90% 30.07 in 1.0 mi Calm Calm - 0.22 in Rain Heavy Rain
1:20 AM 46.9 °F - 43.0 °F 86% 30.07 in 3.0 mi SSE 4.6 mph - 0.26 in Rain Light Rain
1:35 AM 48.0 °F - 45.0 °F 89% 30.08 in 4.0 mi SSE 4.6 mph - 0.31 in Rain Light Rain
1:53 AM 48.0 °F - 46.0 °F 93% 30.09 in 10.0 mi SSE 5.8 mph - 0.31 in   Overcast
2:05 AM 48.0 °F - 45.0 °F 89% 30.09 in 10.0 mi SSE 5.8 mph - 0.00 in Rain Light Rain
2:15 AM 48.0 °F - 45.0 °F 89% 30.09 in 6.0 mi SE 9.2 mph - 0.01 in Rain Rain
2:53 AM 46.9 °F - 45.0 °F 93% 30.11 in 8.0 mi SE 8.1 mph - 0.06 in Rain Light Rain
3:05 AM 46.9 °F - 45.0 °F 93% 30.11 in 8.0 mi SE 5.8 mph - 0.00 in Rain Light Rain
3:12 AM 46.9 °F - 45.0 °F 93% 30.11 in 10.0 mi SE 5.8 mph - 0.00 in Rain Light Rain
3:53 AM 48.0 °F - 45.0 °F 89% 30.12 in 9.0 mi ESE 6.9 mph - 0.01 in Rain Light Rain
3:55 AM 48.0 °F - 45.0 °F 89% 30.11 in 8.0 mi ESE 6.9 mph - 0.00 in Rain Light Rain
4:16 AM 48.0 °F - 45.0 °F 89% 30.12 in 10.0 mi SE 4.6 mph - 0.00 in   Overcast
4:49 AM 46.4 °F 45.2 °F 44.6 °F 93% 30.13 in 1.8 mi South 3.5 mph - 0.01 in Rain Light Rain
4:53 AM 46.9 °F - 45.0 °F 93% 30.13 in 1.2 mi SSW 3.5 mph - 0.02 in Rain Rain
5:38 AM 48.0 °F - 45.0 °F 89% 30.14 in 10.0 mi Calm Calm - 0.00 in   Overcast
5:53 AM 48.0 °F - 45.0 °F 89% 30.14 in 10.0 mi SSE 4.6 mph - 0.00 in   Overcast
6:05 AM 48.2 °F - 44.6 °F 87% 30.14 in 10.0 mi SSE 3.5 mph - N/A   Overcast
6:53 AM 48.2 °F - 46.4 °F 93% 30.16 in 10.0 mi SE 5.8 mph - N/A   Overcast
7:53 AM 48.2 °F - 46.4 °F 93% 30.17 in 10.0 mi SE 11.5 mph - N/A Rain Light Rain
8:53 AM 50.0 °F - 46.4 °F 87% 30.18 in 10.0 mi ESE 17.3 mph - N/A   Overcast
9:53 AM 50.0 °F - 46.4 °F 87% 30.19 in 10.0 mi SE 12.7 mph - N/A   Overcast
10:53 AM 51.8 °F - 46.4 °F 82% 30.20 in 10.0 mi SE 18.4 mph - N/A   Overcast
11:53 AM 53.6 °F - 42.8 °F 67% 30.21 in 10.0 mi ESE 15.0 mph - N/A   Mostly Cloudy
12:53 PM 53.6 °F - 44.6 °F 72% 30.21 in 10.0 mi ESE 16.1 mph - N/A   Overcast
1:53 PM 57.2 °F - 44.6 °F 63% 30.20 in 10.0 mi ESE 17.3 mph 23.0 mph N/A   Mostly Cloudy
2:53 PM 55.4 °F - 44.6 °F 67% 30.20 in 10.0 mi ESE 15.0 mph - N/A   Overcast
3:53 PM 55.4 °F - 44.6 °F 67% 30.19 in 10.0 mi ESE 18.4 mph 24.2 mph N/A   Overcast
4:53 PM 55.0 °F - 42.1 °F 62% 30.18 in 10.0 mi SE 10.4 mph - N/A   Mostly Cloudy
5:53 PM 54.0 °F - 42.1 °F 64% 30.17 in 10.0 mi SE 10.4 mph - N/A   Mostly Cloudy
6:53 PM 53.1 °F - 46.0 °F 77% 30.16 in 10.0 mi ESE 10.4 mph - 0.00 in Rain Light Rain
7:53 PM 52.0 °F - 45.0 °F 77% 30.16 in 10.0 mi ESE 11.5 mph - 0.00 in   Mostly Cloudy
8:53 PM 50.0 °F - 44.1 °F 80% 30.14 in 10.0 mi SSE 8.1 mph - N/A   Overcast
9:53 PM 48.9 °F - 43.0 °F 80% 30.14 in 10.0 mi SSE 5.8 mph - N/A   Mostly Cloudy
10:53 PM 48.9 °F - 43.0 °F 80% 30.12 in 10.0 mi South 4.6 mph - N/A   Overcast
11:53 PM 48.9 °F - 44.1 °F 83% 30.11 in 10.0 mi South 3.5 mph - 0.00 in Rain Light Rain